Time,TemperatureF,DewpointF,PressureIn,WindDirection,WindDirectionDegrees,WindSpeedMPH,WindSpeedGustMPH,Humidity,HourlyPrecipIn,Conditions,Clouds,dailyrainin,SoftwareType,DateUTC
2013-08-20 00:01:00,64.8,64.2,30.02,ESE,112,0.0,-999.0,98,-99.99,,,0.00,Acu-Link.com,2013-08-20 04:01:00,
2013-08-20 00:16:00,64.4,64.1,30.03,West,270,1.7,-999.0,99,-99.99,,,0.00,Acu-Link.com,2013-08-20 04:16:00,
2013-08-20 00:31:00,64.0,63.7,30.03,WSW,247,0.0,-999.0,99,-99.99,,,0.00,Acu-Link.com,2013-08-20 04:31:00,
2013-08-20 00:47:00,63.5,63.2,30.03,WSW,247,1.7,-999.0,99,-99.99,,,0.00,Acu-Link.com,2013-08-20 04:47:00,
2013-08-20 01:02:00,63.3,63.0,30.03,WSW,247,2.2,-999.0,99,-99.99,,,0.00,Acu-Link.com,2013-08-20 05:02:00,
2013-08-20 01:17:00,63.3,63.0,30.03,SSW,202,0.0,-999.0,99,-99.99,,,0.00,Acu-Link.com,2013-08-20 05:17:00,
2013-08-20 01:32:00,63.1,62.8,30.03,SSW,202,0.0,-999.0,99,-99.99,,,0.00,Acu-Link.com,2013-08-20 05:32:00,
2013-08-20 01:48:00,62.8,62.5,30.02,South,180,2.2,-999.0,99,-99.99,,,0.00,Acu-Link.com,2013-08-20 05:48:00,
2013-08-20 02:03:00,62.4,62.1,30.02,SW,225,0.0,-999.0,99,-99.99,,,0.00,Acu-Link.com,2013-08-20 06:03:00,
2013-08-20 02:18:00,62.1,61.8,30.02,SW,225,0.0,-999.0,99,-99.99,,,0.00,Acu-Link.com,2013-08-20 06:18:00,
2013-08-20 02:33:00,61.7,61.4,30.02,SW,225,0.0,-999.0,99,-99.99,,,0.00,Acu-Link.com,2013-08-20 06:33:00,
2013-08-20 02:49:00,61.5,61.2,30.02,SW,225,0.0,-999.0,99,-99.99,,,0.00,Acu-Link.com,2013-08-20 06:49:00,
2013-08-20 03:04:00,61.2,60.9,30.02,West,270,1.7,-999.0,99,-99.99,,,0.00,Acu-Link.com,2013-08-20 07:04:00,
2013-08-20 03:19:00,60.8,60.5,30.02,West,270,2.2,-999.0,99,-99.99,,,0.00,Acu-Link.com,2013-08-20 07:19:00,
2013-08-20 03:34:00,60.6,60.3,30.02,SW,225,0.0,-999.0,99,-99.99,,,0.00,Acu-Link.com,2013-08-20 07:34:00,
2013-08-20 03:50:00,60.3,60.0,30.03,SW,225,2.2,-999.0,99,-99.99,,,0.00,Acu-Link.com,2013-08-20 07:50:00,
2013-08-20 04:05:00,59.7,59.4,30.03,West,270,2.2,-999.0,99,-99.99,,,0.00,Acu-Link.com,2013-08-20 08:05:00,
2013-08-20 04:20:00,59.5,59.2,30.03,West,270,0.0,-999.0,99,-99.99,,,0.00,Acu-Link.com,2013-08-20 08:20:00,
2013-08-20 04:35:00,59.2,58.9,30.03,West,270,1.7,-999.0,99,-99.99,,,0.00,Acu-Link.com,2013-08-20 08:35:00,
2013-08-20 04:50:00,58.8,58.5,30.03,WSW,247,1.7,-999.0,99,-99.99,,,0.00,Acu-Link.com,2013-08-20 08:50:00,
2013-08-20 05:05:00,58.6,58.3,30.04,West,270,2.7,-999.0,99,-99.99,,,0.00,Acu-Link.com,2013-08-20 09:05:00,
2013-08-20 05:20:00,58.8,58.5,30.04,West,270,2.2,-999.0,99,-99.99,,,0.00,Acu-Link.com,2013-08-20 09:20:00,
2013-08-20 05:35:00,58.6,58.3,30.04,SW,225,1.7,-999.0,99,-99.99,,,0.00,Acu-Link.com,2013-08-20 09:35:00,
2013-08-20 05:51:00,58.5,58.2,30.05,West,270,1.7,-999.0,99,-99.99,,,0.00,Acu-Link.com,2013-08-20 09:51:00,
2013-08-20 06:06:00,58.3,58.0,30.06,West,270,2.7,-999.0,99,-99.99,,,0.00,Acu-Link.com,2013-08-20 10:06:00,
2013-08-20 06:21:00,58.3,58.0,30.06,SW,225,1.7,-999.0,99,-99.99,,,0.00,Acu-Link.com,2013-08-20 10:21:00,
2013-08-20 06:36:00,57.9,57.6,30.07,West,270,2.2,-999.0,99,-99.99,,,0.00,Acu-Link.com,2013-08-20 10:36:00,
2013-08-20 06:51:00,57.9,57.6,30.07,SW,225,0.0,-999.0,99,-99.99,,,0.00,Acu-Link.com,2013-08-20 10:51:00,
2013-08-20 07:07:00,58.1,57.8,30.07,West,270,0.0,-999.0,99,-99.99,,,0.00,Acu-Link.com,2013-08-20 11:07:00,
2013-08-20 07:22:00,58.6,58.3,30.07,West,270,0.0,-999.0,99,-99.99,,,0.00,Acu-Link.com,2013-08-20 11:22:00,
2013-08-20 07:37:00,59.5,59.2,30.08,WSW,247,0.0,-999.0,99,-99.99,,,0.00,Acu-Link.com,2013-08-20 11:37:00,
2013-08-20 07:53:00,59.7,59.4,30.08,West,270,1.7,-999.0,99,-99.99,,,0.00,Acu-Link.com,2013-08-20 11:53:00,
2013-08-20 08:08:00,60.8,60.5,30.08,SW,225,1.7,-999.0,99,-99.99,,,0.00,Acu-Link.com,2013-08-20 12:08:00,
2013-08-20 08:23:00,63.3,63.0,30.08,SSW,202,1.7,-999.0,99,-99.99,,,0.00,Acu-Link.com,2013-08-20 12:23:00,
2013-08-20 08:38:00,66.0,63.9,30.09,SW,225,2.7,-999.0,93,-99.99,,,0.00,Acu-Link.com,2013-08-20 12:38:00,
2013-08-20 08:54:00,69.4,65.4,30.09,SSW,202,2.2,-999.0,87,-99.99,,,0.00,Acu-Link.com,2013-08-20 12:54:00,
2013-08-20 09:09:00,72.0,65.8,30.09,SW,225,2.7,-999.0,81,-99.99,,,0.00,Acu-Link.com,2013-08-20 13:09:00,
2013-08-20 09:24:00,73.2,65.9,30.10,WSW,247,2.2,-999.0,78,-99.99,,,0.00,Acu-Link.com,2013-08-20 13:24:00,
2013-08-20 09:39:00,72.5,66.0,30.10,SW,225,1.7,-999.0,80,-99.99,,,0.00,Acu-Link.com,2013-08-20 13:39:00,
2013-08-20 09:54:00,70.9,66.2,30.11,SW,225,4.2,-999.0,85,-99.99,,,0.00,Acu-Link.com,2013-08-20 13:54:00,
2013-08-20 10:10:00,72.5,66.7,30.11,SW,225,3.7,-999.0,82,-99.99,,,0.00,Acu-Link.com,2013-08-20 14:10:00,
2013-08-20 10:25:00,73.2,66.3,30.11,SSE,157,2.7,-999.0,79,-99.99,,,0.00,Acu-Link.com,2013-08-20 14:25:00,
2013-08-20 10:40:00,75.0,66.1,30.11,SSW,202,2.7,-999.0,74,-99.99,,,0.00,Acu-Link.com,2013-08-20 14:40:00,
2013-08-20 10:55:00,74.8,65.9,30.12,West,270,0.0,-999.0,74,-99.99,,,0.00,Acu-Link.com,2013-08-20 14:55:00,
2013-08-20 11:11:00,77.5,66.9,30.11,West,270,1.7,-999.0,70,-99.99,,,0.00,Acu-Link.com,2013-08-20 15:11:00,
2013-08-20 11:26:00,77.0,66.4,30.12,WSW,247,5.8,-999.0,70,-99.99,,,0.00,Acu-Link.com,2013-08-20 15:26:00,
2013-08-20 11:41:00,77.4,67.6,30.11,West,270,5.8,-999.0,72,-99.99,,,0.00,Acu-Link.com,2013-08-20 15:41:00,
2013-08-20 11:57:00,75.6,65.1,30.11,West,270,6.3,-999.0,70,-99.99,,,0.00,Acu-Link.com,2013-08-20 15:57:00,
2013-08-20 12:12:00,77.2,64.9,30.11,West,270,3.7,-999.0,66,-99.99,,,0.00,Acu-Link.com,2013-08-20 16:12:00,
2013-08-20 12:27:00,79.7,62.6,30.11,ESE,112,3.2,-999.0,56,-99.99,,,0.00,Acu-Link.com,2013-08-20 16:27:00,
2013-08-20 12:43:00,79.2,62.6,30.10,ESE,112,2.2,-999.0,57,-99.99,,,0.00,Acu-Link.com,2013-08-20 16:43:00,
2013-08-20 12:58:00,80.2,63.1,30.10,SSE,157,3.2,-999.0,56,-99.99,,,0.00,Acu-Link.com,2013-08-20 16:58:00,
2013-08-20 13:13:00,76.5,61.1,30.11,SSW,202,1.7,-999.0,59,-99.99,,,0.00,Acu-Link.com,2013-08-20 17:13:00,
2013-08-20 13:28:00,82.9,66.1,30.10,SSW,202,0.0,-999.0,57,-99.99,,,0.00,Acu-Link.com,2013-08-20 17:28:00,
2013-08-20 13:44:00,78.4,62.9,30.10,WSW,247,2.7,-999.0,59,-99.99,,,0.00,Acu-Link.com,2013-08-20 17:44:00,
2013-08-20 13:59:00,82.4,64.1,30.10,South,180,2.2,-999.0,54,-99.99,,,0.00,Acu-Link.com,2013-08-20 17:59:00,
2013-08-20 14:14:00,82.2,63.9,30.09,WSW,247,3.2,-999.0,54,-99.99,,,0.00,Acu-Link.com,2013-08-20 18:14:00,
2013-08-20 14:30:00,77.7,61.7,30.09,West,270,5.3,-999.0,58,-99.99,,,0.00,Acu-Link.com,2013-08-20 18:30:00,
2013-08-20 14:45:00,81.5,63.2,30.09,SW,225,4.7,-999.0,54,-99.99,,,0.00,Acu-Link.com,2013-08-20 18:45:00,
2013-08-20 15:00:00,81.5,62.2,30.08,West,270,4.7,-999.0,52,-99.99,,,0.00,Acu-Link.com,2013-08-20 19:00:00,
2013-08-20 15:15:00,81.9,63.6,30.08,SW,225,4.7,-999.0,54,-99.99,,,0.00,Acu-Link.com,2013-08-20 19:15:00,
2013-08-20 15:30:00,80.4,62.2,30.07,SW,225,2.7,-999.0,54,-99.99,,,0.00,Acu-Link.com,2013-08-20 19:30:00,
2013-08-20 15:45:00,78.8,61.8,30.07,East,90,0.0,-999.0,56,-99.99,,,0.00,Acu-Link.com,2013-08-20 19:45:00,
2013-08-20 16:01:00,80.8,62.0,30.07,West,270,2.7,-999.0,53,-99.99,,,0.00,Acu-Link.com,2013-08-20 20:01:00,
2013-08-20 16:16:00,79.0,61.4,30.07,WSW,247,1.7,-999.0,55,-99.99,,,0.00,Acu-Link.com,2013-08-20 20:16:00,
2013-08-20 16:31:00,82.6,62.0,30.06,SW,225,2.2,-999.0,50,-99.99,,,0.00,Acu-Link.com,2013-08-20 20:31:00,
2013-08-20 16:46:00,82.9,62.9,30.06,SW,225,4.7,-999.0,51,-99.99,,,0.00,Acu-Link.com,2013-08-20 20:46:00,
2013-08-20 17:01:00,82.4,61.3,30.06,West,270,4.2,-999.0,49,-99.99,,,0.00,Acu-Link.com,2013-08-20 21:01:00,
2013-08-20 17:17:00,81.9,61.4,30.06,SSW,202,3.2,-999.0,50,-99.99,,,0.00,Acu-Link.com,2013-08-20 21:17:00,
2013-08-20 17:32:00,79.7,61.6,30.06,West,270,2.7,-999.0,54,-99.99,,,0.00,Acu-Link.com,2013-08-20 21:32:00,
2013-08-20 17:47:00,81.7,61.2,30.05,WSW,247,2.2,-999.0,50,-99.99,,,0.00,Acu-Link.com,2013-08-20 21:47:00,
2013-08-20 18:02:00,85.1,61.3,30.05,West,270,0.0,-999.0,45,-99.99,,,0.00,Acu-Link.com,2013-08-20 22:02:00,
2013-08-20 18:17:00,86.0,62.8,30.05,West,270,4.2,-999.0,46,-99.99,,,0.00,Acu-Link.com,2013-08-20 22:17:00,
2013-08-20 18:33:00,84.9,62.4,30.05,WSW,247,2.7,-999.0,47,-99.99,,,0.00,Acu-Link.com,2013-08-20 22:33:00,
2013-08-20 18:48:00,85.3,60.9,30.04,West,270,2.2,-999.0,44,-99.99,,,0.00,Acu-Link.com,2013-08-20 22:48:00,
2013-08-20 19:03:00,85.5,64.1,30.04,West,270,0.0,-999.0,49,-99.99,,,0.00,Acu-Link.com,2013-08-20 23:03:00,
2013-08-20 19:19:00,84.2,64.6,30.05,SW,225,0.0,-999.0,52,-99.99,,,0.00,Acu-Link.com,2013-08-20 23:19:00,
2013-08-20 19:34:00,82.9,64.0,30.05,West,270,0.0,-999.0,53,-99.99,,,0.00,Acu-Link.com,2013-08-20 23:34:00,
2013-08-20 19:49:00,80.2,62.5,30.05,West,270,0.0,-999.0,55,-99.99,,,0.00,Acu-Link.com,2013-08-20 23:49:00,
2013-08-20 20:04:00,76.6,63.0,30.05,SE,135,0.0,-999.0,63,-99.99,,,0.00,Acu-Link.com,2013-08-21 00:04:00,
2013-08-20 20:19:00,75.6,62.1,30.06,East,90,0.0,-999.0,63,-99.99,,,0.00,Acu-Link.com,2013-08-21 00:19:00,
2013-08-20 20:35:00,73.4,64.2,30.06,SE,135,0.0,-999.0,73,-99.99,,,0.00,Acu-Link.com,2013-08-21 00:35:00,
2013-08-20 20:50:00,71.1,65.0,30.06,ESE,112,0.0,-999.0,81,-99.99,,,0.00,Acu-Link.com,2013-08-21 00:50:00,
2013-08-20 21:05:00,69.8,64.7,30.07,East,90,1.7,-999.0,84,-99.99,,,0.00,Acu-Link.com,2013-08-21 01:05:00,
2013-08-20 21:20:00,69.3,64.3,30.07,ESE,112,0.0,-999.0,84,-99.99,,,0.00,Acu-Link.com,2013-08-21 01:20:00,
2013-08-20 21:36:00,68.0,63.6,30.07,East,90,1.1,-999.0,86,-99.99,,,0.00,Acu-Link.com,2013-08-21 01:36:00,
2013-08-20 21:51:00,67.6,63.3,30.08,ESE,112,0.0,-999.0,86,-99.99,,,0.00,Acu-Link.com,2013-08-21 01:51:00,
2013-08-20 22:06:00,67.1,62.4,30.08,SSE,157,0.0,-999.0,85,-99.99,,,0.00,Acu-Link.com,2013-08-21 02:06:00,
2013-08-20 22:22:00,65.8,62.5,30.08,ESE,112,0.0,-999.0,89,-99.99,,,0.00,Acu-Link.com,2013-08-21 02:22:00,
2013-08-20 22:37:00,65.1,61.5,30.08,SE,135,0.0,-999.0,88,-99.99,,,0.00,Acu-Link.com,2013-08-21 02:37:00,
2013-08-20 22:52:00,65.1,61.5,30.08,ESE,112,0.0,-999.0,88,-99.99,,,0.00,Acu-Link.com,2013-08-21 02:52:00,
2013-08-20 23:08:00,64.9,61.6,30.09,SSW,202,0.0,-999.0,89,-99.99,,,0.00,Acu-Link.com,2013-08-21 03:08:00,
2013-08-20 23:23:00,64.4,61.4,30.09,SSE,157,0.0,-999.0,90,-99.99,,,0.00,Acu-Link.com,2013-08-21 03:23:00,
2013-08-20 23:38:00,63.7,61.3,30.09,ESE,112,0.0,-999.0,92,-99.99,,,0.00,Acu-Link.com,2013-08-21 03:38:00,
2013-08-20 23:54:00,63.1,61.3,30.08,East,90,0.0,-999.0,94,-99.99,,,0.00,Acu-Link.com,2013-08-21 03:54:00,